Погода в Петрилове

Россия / Костромская область     57°50′10″N   40°39′16″E
темп.,
°C
ветер,
м/с
пор.,
м/с
влажн.,
%
обл.,
%
осадки,
мм/ч
давл.,
гПа
погр.,
м
8 мая, сб
сб800:00+5ю3473100 0.0 101360
03:00+5ююв497485 0.0 1013159
06:00+6ююв51272100 0.0 1013284
09:00+10ююв61361100 0.0 1013763
12:00+14ююв81254100 0.0 10112165
15:00+13юв71357100 0.1 10091938
18:00+8юв61390100 3.1 10081177
21:00+8юв71491100 9.1 10051179
9 мая, вс
вс900:00+9юв61395100 6.4 1002833
03:00+10ююв61195100 7.1 1001548
06:00+10ю3797100 0.4 1001451
09:00+8зсз4596100 1.3 1003390
12:00+3зсз71296100 0.8 1008631
15:00+5сз71495100 2.7 1012883
18:00+7сз7127911 0.1 10151238
21:00+3зсз49834 0.1 1019162
10 мая, пн
пн1000:00+2зсз36855 0.0 1021101
03:00+2сз38900 0.0 1024140
06:00+3сз26870 0.0 1027179
09:00+9ссз23622 0.0 1028608
12:00+12зсз23465 0.0 10281374
15:00+13з33457 0.0 10291481
18:00+13ююз235520 0.0 1029667
21:00+9ю3463100 0.0 103071
11 мая, вт
вт1100:00+8юз236679 0.0 103149
03:00+6юз22715 0.0 103118
06:00+8ююз237327 0.0 103284
09:00+13ююз33609 0.0 1032472
12:00+17ююз33555 0.0 1032952
15:00+18ююз225336 0.0 10311028
18:00+18юв116295 0.0 1030598
21:00+13юв2276100 0.0 103011
12 мая, ср
ср1200:00+11ююв3382100 0.0 103146
03:00+10в227699 0.0 103119
06:00+10вюв257943 0.0 1031131
09:00+16юв46618 0.0 1031562
12:00+19вюв465240 0.0 10301013
15:00+20юв45485 0.0 10291135
18:00+19юв24615 0.0 1028206
21:00+13вюв23750 0.0 102819